Time,TemperatureF,DewpointF,PressureIn,WindDirection,WindDirectionDegrees,WindSpeedMPH,WindSpeedGustMPH,Humidity,HourlyPrecipIn,Conditions,Clouds,dailyrainin,SoftwareType,DateUTC
2013-04-25 00:02:00,47.0,45.0,30.28,NNE,15,0.0,0.0,92,0.00,,,0.49,,2013-04-25 05:02:00,
2013-04-25 00:12:00,47.0,45.0,30.28,NNE,15,0.0,0.0,92,0.00,,,0.49,,2013-04-25 05:12:00,
2013-04-25 00:21:00,48.0,46.0,30.28,NNE,15,0.0,2.0,93,0.00,,,0.49,,2013-04-25 05:21:00,
2013-04-25 00:32:00,48.0,46.0,30.28,North,5,2.0,4.0,93,0.00,,,0.49,,2013-04-25 05:32:00,
2013-04-25 00:42:00,48.0,46.0,30.28,North,5,2.0,4.0,93,0.00,,,0.49,,2013-04-25 05:42:00,
2013-04-25 00:51:00,48.0,46.0,30.28,North,5,1.0,4.0,92,0.00,,,0.49,,2013-04-25 05:51:00,
2013-04-25 01:02:00,48.0,46.0,30.27,NNE,23,4.0,6.0,92,0.00,,,0.49,,2013-04-25 06:02:00,
2013-04-25 01:11:00,48.0,46.0,30.27,NNE,23,4.0,6.0,92,0.00,,,0.49,,2013-04-25 06:11:00,
2013-04-25 01:22:00,48.0,45.0,30.27,NNE,13,3.0,6.0,91,0.00,,,0.49,,2013-04-25 06:22:00,
2013-04-25 01:32:00,48.0,45.0,30.26,NNE,22,4.0,8.0,91,0.00,,,0.49,,2013-04-25 06:32:00,
2013-04-25 01:42:00,48.0,45.0,30.26,NNE,22,4.0,8.0,91,0.00,,,0.49,,2013-04-25 06:42:00,
2013-04-25 01:52:00,48.0,45.0,30.25,NNE,22,5.0,7.0,90,0.00,,,0.49,,2013-04-25 06:52:00,
2013-04-25 02:02:00,48.0,45.0,30.24,NE,50,7.0,9.0,89,0.00,,,0.49,,2013-04-25 07:02:00,
2013-04-25 02:12:00,48.0,45.0,30.24,NE,50,7.0,9.0,89,0.00,,,0.49,,2013-04-25 07:12:00,
2013-04-25 02:22:00,48.0,45.0,30.24,NE,40,6.0,10.0,89,0.00,,,0.49,,2013-04-25 07:22:00,
2013-04-25 02:32:00,48.0,45.0,30.24,NE,51,5.0,9.0,88,0.00,,,0.49,,2013-04-25 07:32:00,
2013-04-25 02:42:00,48.0,45.0,30.24,NE,51,5.0,9.0,88,0.00,,,0.49,,2013-04-25 07:42:00,
2013-04-25 02:52:00,48.0,45.0,30.24,NE,53,5.0,7.0,88,0.00,,,0.49,,2013-04-25 07:52:00,
2013-04-25 03:02:00,47.0,44.0,30.25,NE,55,2.0,5.0,88,0.00,,,0.49,,2013-04-25 08:02:00,
2013-04-25 03:11:00,47.0,44.0,30.25,NE,55,2.0,5.0,88,0.00,,,0.49,,2013-04-25 08:11:00,
2013-04-25 03:21:00,47.0,43.0,30.26,NE,53,1.0,5.0,87,0.00,,,0.49,,2013-04-25 08:21:00,
2013-04-25 03:31:00,47.0,44.0,30.27,ENE,59,0.0,3.0,88,0.00,,,0.49,,2013-04-25 08:31:00,
2013-04-25 03:41:00,47.0,44.0,30.27,ENE,59,0.0,3.0,88,0.00,,,0.49,,2013-04-25 08:41:00,
2013-04-25 03:51:00,47.0,44.0,30.27,NE,50,2.0,3.0,89,0.00,,,0.49,,2013-04-25 08:51:00,
2013-04-25 04:01:00,47.0,44.0,30.27,NE,41,3.0,4.0,89,0.00,,,0.49,,2013-04-25 09:01:00,
2013-04-25 04:11:00,47.0,44.0,30.27,NE,41,3.0,4.0,89,0.00,,,0.49,,2013-04-25 09:11:00,
2013-04-25 04:21:00,47.0,44.0,30.28,NNE,28,2.0,6.0,90,0.00,,,0.49,,2013-04-25 09:21:00,
2013-04-25 04:33:00,47.0,44.0,30.28,NNE,24,3.0,5.0,90,0.00,,,0.49,,2013-04-25 09:33:00,
2013-04-25 04:42:00,47.0,44.0,30.28,NNE,24,3.0,5.0,90,0.00,,,0.49,,2013-04-25 09:42:00,
2013-04-25 04:52:00,47.0,44.0,30.28,NE,40,3.0,5.0,90,0.00,,,0.49,,2013-04-25 09:52:00,
2013-04-25 05:02:00,46.0,43.0,30.29,NE,36,3.0,4.0,90,0.00,,,0.49,,2013-04-25 10:02:00,
2013-04-25 05:12:00,46.0,43.0,30.29,NE,36,3.0,4.0,90,0.00,,,0.49,,2013-04-25 10:12:00,
2013-04-25 05:22:00,46.0,43.0,30.28,NE,46,4.0,7.0,90,0.00,,,0.49,,2013-04-25 10:22:00,
2013-04-25 05:32:00,47.0,44.0,30.30,NE,34,2.0,5.0,90,0.00,,,0.49,,2013-04-25 10:32:00,
2013-04-25 05:42:00,47.0,44.0,30.30,NE,34,2.0,5.0,90,0.00,,,0.49,,2013-04-25 10:42:00,
2013-04-25 05:52:00,47.0,44.0,30.31,NE,34,1.0,4.0,90,0.00,,,0.49,,2013-04-25 10:52:00,
2013-04-25 06:02:00,46.0,43.0,30.30,NE,41,1.0,3.0,89,0.00,,,0.49,,2013-04-25 11:02:00,
2013-04-25 06:12:00,46.0,43.0,30.30,NE,41,1.0,3.0,89,0.00,,,0.49,,2013-04-25 11:12:00,
2013-04-25 06:22:00,46.0,43.0,30.30,NE,41,1.0,2.0,90,0.00,,,0.49,,2013-04-25 11:22:00,
2013-04-25 06:32:00,46.0,44.0,30.30,NNE,23,4.0,6.0,91,0.00,,,0.49,,2013-04-25 11:32:00,
2013-04-25 06:42:00,46.0,44.0,30.30,NNE,23,4.0,6.0,91,0.00,,,0.49,,2013-04-25 11:42:00,
2013-04-25 06:51:00,46.0,43.0,30.31,ENE,59,3.0,5.0,90,0.00,,,0.14,,2013-04-25 11:51:00,
2013-04-25 07:01:00,46.0,43.0,30.31,NE,37,4.0,7.0,90,0.00,,,0.14,,2013-04-25 12:01:00,
2013-04-25 07:12:00,46.0,43.0,30.31,NE,37,4.0,7.0,90,0.00,,,0.14,,2013-04-25 12:12:00,
2013-04-25 07:21:00,46.0,43.0,30.32,NE,39,4.0,7.0,89,0.00,,,0.14,,2013-04-25 12:21:00,
2013-04-25 07:32:00,47.0,44.0,30.32,NE,36,6.0,8.0,89,0.00,,,0.14,,2013-04-25 12:32:00,
2013-04-25 07:42:00,47.0,44.0,30.32,NE,36,6.0,8.0,89,0.00,,,0.14,,2013-04-25 12:42:00,
2013-04-25 07:51:00,47.0,44.0,30.32,NE,39,5.0,8.0,89,0.00,,,0.10,,2013-04-25 12:51:00,
2013-04-25 08:02:00,47.0,43.0,30.32,ENE,72,5.0,10.0,87,0.00,,,0.10,,2013-04-25 13:02:00,
2013-04-25 08:11:00,47.0,43.0,30.32,ENE,72,5.0,10.0,87,0.00,,,0.10,,2013-04-25 13:11:00,
2013-04-25 08:21:00,47.0,43.0,30.34,NE,55,5.0,9.0,86,0.00,,,0.10,,2013-04-25 13:21:00,
2013-04-25 08:32:00,48.0,43.0,30.35,NE,48,7.0,10.0,84,0.00,,,0.10,,2013-04-25 13:32:00,
2013-04-25 08:42:00,48.0,43.0,30.35,NE,48,7.0,10.0,84,0.00,,,0.10,,2013-04-25 13:42:00,
2013-04-25 08:52:00,49.0,44.0,30.35,NE,56,6.0,9.0,83,0.00,,,0.02,,2013-04-25 13:52:00,
2013-04-25 09:02:00,50.0,44.0,30.35,NE,50,7.0,11.0,81,0.00,,,0.02,,2013-04-25 14:02:00,
2013-04-25 09:11:00,50.0,44.0,30.35,NE,50,7.0,11.0,81,0.00,,,0.02,,2013-04-25 14:11:00,
2013-04-25 09:21:00,51.0,44.0,30.35,NE,48,8.0,12.0,76,0.00,,,0.02,,2013-04-25 14:21:00,
2013-04-25 09:32:00,52.0,44.0,30.35,NE,53,9.0,13.0,75,0.00,,,0.02,,2013-04-25 14:32:00,
2013-04-25 09:42:00,52.0,44.0,30.35,NE,53,9.0,13.0,75,0.00,,,0.02,,2013-04-25 14:42:00,
2013-04-25 09:51:00,52.0,44.0,30.36,ENE,63,8.0,12.0,74,0.00,,,0.00,,2013-04-25 14:51:00,
2013-04-25 10:02:00,53.0,45.0,30.36,NE,54,7.0,10.0,73,0.00,,,0.00,,2013-04-25 15:02:00,
2013-04-25 10:11:00,53.0,45.0,30.36,NE,54,7.0,10.0,73,0.00,,,0.00,,2013-04-25 15:11:00,
2013-04-25 10:21:00,54.0,44.0,30.36,East,86,7.0,13.0,70,0.00,,,0.00,,2013-04-25 15:21:00,
2013-04-25 10:33:00,55.0,44.0,30.37,NE,48,10.0,15.0,67,0.00,,,0.00,,2013-04-25 15:33:00,
2013-04-25 10:42:00,55.0,44.0,30.37,NE,48,10.0,15.0,67,0.00,,,0.00,,2013-04-25 15:42:00,
2013-04-25 10:53:00,56.0,44.0,30.37,NE,46,10.0,15.0,65,0.00,,,0.00,,2013-04-25 15:53:00,
2013-04-25 11:02:00,56.0,46.0,30.37,NE,38,8.0,16.0,68,0.00,,,0.00,,2013-04-25 16:02:00,
2013-04-25 11:13:00,56.0,46.0,30.37,NE,38,8.0,16.0,68,0.00,,,0.00,,2013-04-25 16:13:00,
2013-04-25 11:24:00,57.0,46.0,30.37,ENE,61,10.0,14.0,67,0.00,,,0.00,,2013-04-25 16:24:00,
2013-04-25 11:32:00,58.0,46.0,30.37,ENE,69,9.0,17.0,65,0.00,,,0.00,,2013-04-25 16:32:00,
2013-04-25 11:42:00,58.0,46.0,30.37,ENE,69,9.0,17.0,65,0.00,,,0.00,,2013-04-25 16:42:00,
2013-04-25 11:52:00,59.0,46.0,30.36,NE,54,10.0,15.0,63,0.00,,,0.00,,2013-04-25 16:52:00,
2013-04-25 12:02:00,59.0,45.0,30.36,ENE,66,11.0,17.0,59,0.00,,,0.00,,2013-04-25 17:02:00,
2013-04-25 12:11:00,59.0,45.0,30.36,ENE,66,11.0,17.0,59,0.00,,,0.00,,2013-04-25 17:11:00,
2013-04-25 12:22:00,60.0,45.0,30.35,NE,51,9.0,16.0,57,0.00,,,0.00,,2013-04-25 17:22:00,
2013-04-25 12:32:00,61.0,47.0,30.35,NNE,26,9.0,14.0,60,0.00,,,0.00,,2013-04-25 17:32:00,
2013-04-25 12:42:00,61.0,47.0,30.35,NNE,26,9.0,14.0,60,0.00,,,0.00,,2013-04-25 17:42:00,
2013-04-25 12:53:00,61.0,44.0,30.35,NE,53,9.0,17.0,53,0.00,,,0.00,,2013-04-25 17:53:00,
2013-04-25 13:01:00,62.0,43.0,30.34,NE,39,12.0,16.0,50,0.00,,,0.00,,2013-04-25 18:01:00,
2013-04-25 13:11:00,62.0,43.0,30.34,NE,39,12.0,16.0,50,0.00,,,0.00,,2013-04-25 18:11:00,
2013-04-25 13:22:00,62.0,45.0,30.33,NNE,19,9.0,16.0,54,0.00,,,0.00,,2013-04-25 18:22:00,
2013-04-25 13:32:00,63.0,44.0,30.33,NE,36,7.0,17.0,50,0.00,,,0.00,,2013-04-25 18:32:00,
2013-04-25 13:42:00,63.0,44.0,30.33,NE,36,7.0,17.0,50,0.00,,,0.00,,2013-04-25 18:42:00,
2013-04-25 13:52:00,63.0,45.0,30.33,NE,42,9.0,17.0,52,0.00,,,0.00,,2013-04-25 18:52:00,
2013-04-25 14:01:00,64.0,45.0,30.33,NE,49,8.0,14.0,50,0.00,,,0.00,,2013-04-25 19:01:00,
2013-04-25 14:12:00,64.0,45.0,30.33,NE,49,8.0,14.0,50,0.00,,,0.00,,2013-04-25 19:12:00,
2013-04-25 14:21:00,64.0,47.0,30.33,NE,51,6.0,12.0,53,0.00,,,0.00,,2013-04-25 19:21:00,
2013-04-25 14:31:00,64.0,47.0,30.33,NNE,26,4.0,11.0,54,0.00,,,0.00,,2013-04-25 19:31:00,
2013-04-25 14:42:00,64.0,47.0,30.33,NNE,26,4.0,11.0,54,0.00,,,0.00,,2013-04-25 19:42:00,
2013-04-25 14:52:00,65.0,48.0,30.33,NNE,32,7.0,11.0,54,0.00,,,0.00,,2013-04-25 19:52:00,
2013-04-25 15:02:00,65.0,45.0,30.32,NNE,30,9.0,13.0,48,0.00,,,0.00,,2013-04-25 20:02:00,
2013-04-25 15:11:00,65.0,45.0,30.32,NNE,30,9.0,13.0,48,0.00,,,0.00,,2013-04-25 20:11:00,
2013-04-25 15:22:00,65.0,45.0,30.31,ENE,59,10.0,16.0,49,0.00,,,0.00,,2013-04-25 20:22:00,
2013-04-25 15:32:00,66.0,45.0,30.31,NE,47,10.0,19.0,46,0.00,,,0.00,,2013-04-25 20:32:00,
2013-04-25 15:42:00,66.0,45.0,30.31,NE,47,10.0,19.0,46,0.00,,,0.00,,2013-04-25 20:42:00,
2013-04-25 15:52:00,66.0,46.0,30.29,NE,42,10.0,17.0,48,0.00,,,0.00,,2013-04-25 20:52:00,
2013-04-25 16:01:00,66.0,45.0,30.29,NE,53,9.0,14.0,47,0.00,,,0.00,,2013-04-25 21:01:00,
2013-04-25 16:11:00,66.0,45.0,30.29,NE,53,9.0,14.0,47,0.00,,,0.00,,2013-04-25 21:11:00,
2013-04-25 16:21:00,66.0,45.0,30.28,NE,38,9.0,13.0,47,0.00,,,0.00,,2013-04-25 21:21:00,
2013-04-25 16:33:00,67.0,46.0,30.28,NE,51,9.0,13.0,46,0.00,,,0.00,,2013-04-25 21:33:00,
2013-04-25 16:42:00,67.0,46.0,30.28,NE,51,9.0,13.0,46,0.00,,,0.00,,2013-04-25 21:42:00,
2013-04-25 16:52:00,67.0,46.0,30.27,NE,46,8.0,13.0,47,0.00,,,0.00,,2013-04-25 21:52:00,
2013-04-25 17:02:00,67.0,46.0,30.28,ENE,61,7.0,11.0,46,0.00,,,0.00,,2013-04-25 22:02:00,
2013-04-25 17:12:00,67.0,46.0,30.28,ENE,61,7.0,11.0,46,0.00,,,0.00,,2013-04-25 22:12:00,
2013-04-25 17:22:00,67.0,46.0,30.27,North,11,8.0,11.0,46,0.00,,,0.00,,2013-04-25 22:22:00,
2013-04-25 17:33:00,67.0,44.0,30.27,NE,51,5.0,11.0,44,0.00,,,0.00,,2013-04-25 22:33:00,
2013-04-25 17:42:00,67.0,44.0,30.27,NE,51,5.0,11.0,44,0.00,,,0.00,,2013-04-25 22:42:00,
2013-04-25 17:52:00,67.0,46.0,30.26,NE,37,4.0,11.0,47,0.00,,,0.00,,2013-04-25 22:52:00,
2013-04-25 18:02:00,67.0,46.0,30.26,NE,37,4.0,11.0,47,0.00,,,0.00,,2013-04-25 23:02:00,
2013-04-25 18:12:00,67.0,46.0,30.26,NE,37,4.0,11.0,47,0.00,,,0.00,,2013-04-25 23:12:00,
2013-04-25 18:22:00,67.0,47.0,30.27,NNE,30,4.0,11.0,48,0.00,,,0.00,,2013-04-25 23:22:00,
2013-04-25 18:32:00,67.0,47.0,30.27,ENE,66,6.0,10.0,49,0.00,,,0.00,,2013-04-25 23:32:00,
2013-04-25 18:42:00,67.0,47.0,30.27,ENE,66,6.0,10.0,49,0.00,,,0.00,,2013-04-25 23:42:00,
2013-04-25 18:52:00,66.0,46.0,30.27,NNE,32,4.0,10.0,49,0.00,,,0.00,,2013-04-25 23:52:00,
2013-04-25 19:01:00,66.0,47.0,30.27,NE,41,5.0,9.0,51,0.00,,,0.00,,2013-04-26 00:01:00,
2013-04-25 19:11:00,66.0,47.0,30.27,NE,41,5.0,9.0,51,0.00,,,0.00,,2013-04-26 00:11:00,
2013-04-25 19:21:00,66.0,48.0,30.26,NNE,26,5.0,9.0,52,0.00,,,0.00,,2013-04-26 00:21:00,
2013-04-25 19:32:00,65.0,48.0,30.26,NNE,30,5.0,7.0,55,0.00,,,0.00,,2013-04-26 00:32:00,
2013-04-25 19:41:00,65.0,48.0,30.26,NNE,30,5.0,7.0,55,0.00,,,0.00,,2013-04-26 00:41:00,
2013-04-25 19:51:00,64.0,48.0,30.26,NNE,30,4.0,8.0,56,0.00,,,0.00,,2013-04-26 00:51:00,
2013-04-25 20:01:00,63.0,48.0,30.26,NNE,17,3.0,5.0,59,0.00,,,0.00,,2013-04-26 01:01:00,
2013-04-25 20:11:00,63.0,48.0,30.26,NNE,17,3.0,5.0,59,0.00,,,0.00,,2013-04-26 01:11:00,
2013-04-25 20:21:00,62.0,48.0,30.26,NNE,24,3.0,4.0,61,0.00,,,0.00,,2013-04-26 01:21:00,
2013-04-25 20:31:00,61.0,48.0,30.26,NE,36,4.0,5.0,63,0.00,,,0.00,,2013-04-26 01:31:00,
2013-04-25 20:41:00,61.0,48.0,30.26,NE,36,4.0,5.0,63,0.00,,,0.00,,2013-04-26 01:41:00,
2013-04-25 20:52:00,61.0,48.0,30.26,NE,37,3.0,5.0,63,0.00,,,0.00,,2013-04-26 01:52:00,
2013-04-25 21:02:00,60.0,48.0,30.26,NE,42,1.0,4.0,64,0.00,,,0.00,,2013-04-26 02:02:00,
2013-04-25 21:11:00,60.0,48.0,30.26,NE,42,1.0,4.0,64,0.00,,,0.00,,2013-04-26 02:11:00,
2013-04-25 21:21:00,59.0,48.0,30.26,NE,42,1.0,3.0,68,0.00,,,0.00,,2013-04-26 02:21:00,
2013-04-25 21:32:00,59.0,48.0,30.26,NE,41,2.0,4.0,68,0.00,,,0.00,,2013-04-26 02:32:00,
2013-04-25 21:42:00,59.0,48.0,30.26,NE,41,2.0,4.0,68,0.00,,,0.00,,2013-04-26 02:42:00,
2013-04-25 21:51:00,59.0,48.0,30.27,NE,41,1.0,3.0,68,0.00,,,0.00,,2013-04-26 02:51:00,
2013-04-25 22:01:00,58.0,49.0,30.27,NE,41,2.0,4.0,71,0.00,,,0.00,,2013-04-26 03:01:00,
2013-04-25 22:11:00,58.0,49.0,30.27,NE,41,2.0,4.0,71,0.00,,,0.00,,2013-04-26 03:11:00,
2013-04-25 22:21:00,58.0,49.0,30.27,NE,49,2.0,3.0,71,0.00,,,0.00,,2013-04-26 03:21:00,
2013-04-25 22:33:00,58.0,49.0,30.27,NE,49,2.0,4.0,71,0.00,,,0.00,,2013-04-26 03:33:00,
2013-04-25 22:43:00,58.0,49.0,30.27,NE,49,2.0,4.0,71,0.00,,,0.00,,2013-04-26 03:43:00,
2013-04-25 22:53:00,57.0,48.0,30.27,NE,49,0.0,2.0,71,0.00,,,0.00,,2013-04-26 03:53:00,
2013-04-25 23:02:00,57.0,49.0,30.27,NE,49,1.0,2.0,74,0.00,,,0.00,,2013-04-26 04:02:00,
2013-04-25 23:12:00,57.0,49.0,30.27,NE,49,1.0,2.0,74,0.00,,,0.00,,2013-04-26 04:12:00,
2013-04-25 23:23:00,56.0,49.0,30.27,NE,49,1.0,2.0,76,0.00,,,0.00,,2013-04-26 04:23:00,
2013-04-25 23:32:00,56.0,50.0,30.27,NE,49,1.0,3.0,79,0.00,,,0.00,,2013-04-26 04:32:00,
2013-04-25 23:43:00,56.0,50.0,30.27,NE,49,1.0,3.0,79,0.00,,,0.00,,2013-04-26 04:43:00,
2013-04-25 23:52:00,56.0,50.0,30.26,NE,49,1.0,3.0,79,0.00,,,0.00,,2013-04-26 04:52:00,